• MPC Preparation (Info)

  • MPEC 2020-F39 : 2020 FF1

    The following Minor Planet Electronic Circular may be linked-to from your own Web pages, but must not otherwise be redistributed electronically.

    A form allowing access to any MPEC is at the bottom of this page.


    Read MPEC 2020-F38 Read MPEC 2020-F40


    M.P.E.C. 2020-F39                                Issued 2020 March 18, 01:25 UT
    
         The Minor Planet Electronic Circulars contain information on unusual
             minor planets and routine data on comets.  They are published
        on behalf of Division F of the International Astronomical Union by the
              Minor Planet Center, Smithsonian Astrophysical Observatory,
                              Cambridge, MA 02138, U.S.A.
    
                 Prepared using the Tamkin Foundation Computer Network
    
                                  MPC@CFA.HARVARD.EDU
                URL https://www.minorplanetcenter.net/    ISSN 1523-6714
    
                                    2020 FF1                                 
    
    
    Observations:
         K20F01F* C2020 03 16.32873 11 30 32.30 +02 29 29.8          22.2 GVEF039G96
         K20F01F  C2020 03 16.33405 11 30 32.89 +02 29 36.9          21.6 GVEF039G96
         K20F01F  C2020 03 16.33936 11 30 33.47 +02 29 44.3          21.3 GVEF039G96
         K20F01F  C2020 03 16.34468 11 30 34.07 +02 29 51.6          21.9 GVEF039G96
         K20F01F  C2020 03 16.44147 11 30 46.18 +02 32 04.1          21.1 GVEF039G96
         K20F01F  C2020 03 16.44317 11 30 46.38 +02 32 07.2          22.1 GVEF039G96
         K20F01F  C2020 03 16.44546 11 30 46.70 +02 32 10.4          21.8 GVEF039G96
         K20F01F |C2020 03 17.19191 11 33 27.18 +02 55 38.1          21.2 GVEF039807
         K20F01F |C2020 03 17.19587 11 33 27.79 +02 55 45.1          21.2 GVEF039807
         K20F01F |C2020 03 17.19982 11 33 28.42 +02 55 52.5          21.2 GVEF039807
         K20F01F  C2020 03 18.03049 11 37 09.47 +03 20 36.3          20.9 VVEF039033
         K20F01F  C2020 03 18.03389 11 37 10.39 +03 20 45.0          21.1 VVEF039033
         K20F01F  C2020 03 18.03731 11 37 11.27 +03 20 52.9          21.3 VVEF039033
    
    Observer details:
    033 Karl Schwarzschild Observatory, Tautenburg.  Observers U. Laux, S. Melnikov,
        B. Stecklum.  Measurer B. Stecklum.  1.34-m f/3 Schmidt + CCD.
    807 Cerro Tololo Observatory, La Serena.  Observers T. Linder, R. Holmes.  
        1.00-m f/10.0 astrograph + CCD.
    G96 Mt. Lemmon Survey.  Observer G. J. Leonard.  Measurers E. J. Christensen, 
       G. A. Farneth, D. C. Fuls, A. R. Gibbs, A. D. Grauer, H. Groeller, R. A. 
       Kowalski, S. M. Larson, G. J. Leonard, T. A. Pruyne, D. Rankin, R. L. Seaman,
        F. C. Shelly, K. W. Wierzchos.  1.5-m reflector + 10K CCD.
    
    Orbital elements:
    2020 FF1                                                 Earth MOID = 0.0037 AU
    Epoch 2020 May 31.0 TT = JDT 2459000.5                  Alexandersen
    M  11.75740              (2000.0)            P               Q
    n   0.48326103     Peri.   69.88207     -0.40549203     +0.91409598
    a   1.6082302      Node   176.19386     -0.85046392     -0.37638805
    e   0.4927003      Incl.    1.88297     -0.33509302     -0.15086608
    P   2.04           H   28.0           G   0.15           U   7
    Residuals in seconds of arc
    200316 G96  0.3+  0.1+    200316 G96  0.1-  0.2+    200318 033  0.4-  0.2-
    200316 G96  0.1+  0.1-    200316 G96  0.1-  0.2+    200318 033  0.2+  0.3+
    200316 G96  0.2-  0.1+    200317 807  0.1+  0.2+    200318 033  0.2+  0.1-
    200316 G96  0.3-  0.1+    200317 807  0.1-  0.1-
    200316 G96  0.4+  0.6-    200317 807  0.0   0.0
    
    Ephemeris:
    2020 FF1                 a,e,i = 1.61, 0.49, 2                   q = 0.8159
    Date    TT    R. A. (2000) Decl.     Delta      r    Elong.  Phase     V
    2020 02 17    11 13 13.6 +01 06 19   0.2871  1.2593   158.4    16.8    26.7
    ...
    2020 03 03    11 17 50.4 +00 54 50   0.1541  1.1441   171.9     7.0    24.7
    ...
    2020 03 11    11 22 02.0 +01 23 27   0.09044 1.0837   177.5     2.3    23.2
    ...
    2020 03 17    11 32 44.1 +02 48 08   0.04484 1.0398   176.0     3.8    21.7
    2020 03 18    11 37 03.8 +03 22 14   0.03738 1.0326   175.7     4.1    21.3
    2020 03 19    11 43 33.2 +04 13 04   0.02996 1.0255   175.4     4.5    20.8
    ...
    2020 03 25    22 10 00.2 +07 55 37   0.01589 0.9839    32.1   147.4    26.9
    ...
    2020 04 02    23 00 36.4 +01 34 22   0.07536 0.9327    26.5   151.5    31.0
    ...
    2020 04 17    23 16 42.8 +00 58 52   0.1947  0.8565    37.0   135.1    30.4
    
    A. U. Tomatic                (C) Copyright 2020 MPC           M.P.E.C. 2020-F39
    


    Read MPEC 2020-F38 Read MPEC 2020-F40


    MPEC number:

    Enter an MPEC number in one of the following forms:

    • 1997-B01 (the full form)
    • J97B01 (the packed version of the full form)
    • B01 (the abbreviated form)